Weather History for Elizabethton, TN

Change the Weather History Date:

Wednesday, November 21, 2012

  Actual Average (KTRI) Record (KTRI)
Temperature  
Mean Temperature 45 °F 45 °F  
Max Temperature 60 °F 56 °F 76 °F (1979)
Min Temperature 30 °F 33 °F 17 °F (1968)
Degree Days  
Heating Degree Days 20 20  
Month to date heating degree days 353  
Since 1 July heating degree days 688  
Cooling Degree Days 0 0  
Month to date cooling degree days 0  
Year to date cooling degree days 980  
Moisture  
Dew Point 33 °F    
Average Humidity 72    
Maximum Humidity 100    
Minimum Humidity 31    
Precipitation  
Precipitation 0.00 in 0.11 in 1.94 in (1952)
Month to date precipitation 2.08  
Year to date precipitation 36.62  
Snow  
Snow 0.00 in 0.00 in - ()
Month to date snowfall 0.1  
Since 1 July snowfall 0.2  
Since 1 September snowfall 0.2  
Snow Depth -    
Sea Level Pressure  
Sea Level Pressure 30.17 in    
Wind  
Wind Speed 1 mph (SW)    
Max Wind Speed 10 mph    
Max Gust Speed -    
Visibility 10 miles    
Events      
T = Trace of Precipitation, MM = Missing Value Source: NWS Daily Summary

Daily Weather History Graph

Daily Weather History Graph

Search for Another Location

Airport:

Trip Planner

Search our weather history database for the weather conditions in past years. The results will help you decide how hot, cold, wet, or windy it might be!

Date:

Astronomy

Nov. 21, 2012 Rise Set
Actual Time 7:12 AM EST 5:16 PM EST
Civil Twilight 6:44 AM EST 5:44 PM EST
Nautical Twilight 6:13 AM EST 6:15 PM EST
Astronomical Twilight 5:42 AM EST 6:46 PM EST
Moon 1:22 PM EST (11/21) 12:40 AM EST (11/21)
Length of Visible Light 10h 59m
Length of Day
10h 04m
First Quarter, 61% of the Moon is Illuminated
Nov 21
First Quarter
Nov 28
Full
Dec 6
Last Quarter
Dec 13
New
Dec 20
First Quarter

Hourly Weather History & Observations

Time (EST) Temp. Windchill Dew Point Humidity Pressure Visibility Wind Dir Wind Speed Gust Speed Precip Events Conditions
12:55 AM 35.6 °F - 33.8 °F 93% 30.13 in 10.0 mi Calm Calm - N/A   Mostly Cloudy
1:15 AM 35.6 °F - 33.8 °F 93% 30.13 in 10.0 mi Calm Calm - N/A   Overcast
1:35 AM 35.6 °F - 33.8 °F 93% 30.12 in 10.0 mi Calm Calm - N/A   Overcast
1:55 AM 35.6 °F - 33.8 °F 93% 30.13 in 10.0 mi Calm Calm - N/A   Mostly Cloudy
2:15 AM 33.8 °F - 32.0 °F 93% 30.13 in 10.0 mi Calm Calm - N/A   Partly Cloudy
2:35 AM 33.8 °F - 32.0 °F 93% 30.13 in 10.0 mi Calm Calm - N/A   Clear
2:55 AM 33.8 °F - 32.0 °F 93% 30.13 in 10.0 mi Calm Calm - N/A   Clear
3:15 AM 33.8 °F - 32.0 °F 93% 30.13 in 10.0 mi Calm Calm - N/A   Clear
3:35 AM 33.8 °F - 33.8 °F 100% 30.12 in 10.0 mi Calm Calm - N/A   Clear
3:55 AM 33.8 °F - 30.2 °F 87% 30.12 in 10.0 mi Calm Calm - N/A   Clear
4:15 AM 33.8 °F - 32.0 °F 93% 30.13 in 10.0 mi Calm Calm - N/A   Clear
4:35 AM 33.8 °F - 30.2 °F 87% 30.13 in 10.0 mi Calm Calm - N/A   Clear
4:55 AM 33.8 °F - 30.2 °F 87% 30.13 in 10.0 mi Calm Calm - N/A   Clear
5:15 AM 33.8 °F - 32.0 °F 93% 30.14 in 10.0 mi Calm Calm - N/A   Clear
5:35 AM 33.8 °F - 30.2 °F 87% 30.14 in 10.0 mi Calm Calm - N/A   Clear
5:55 AM 33.8 °F - 30.2 °F 87% 30.15 in 10.0 mi Calm Calm - N/A   Clear
6:15 AM 32.0 °F - 30.2 °F 93% 30.15 in 10.0 mi Calm Calm - N/A   Clear
6:35 AM 32.0 °F - 30.2 °F 93% 30.16 in 10.0 mi Calm Calm - N/A   Clear
6:55 AM 30.2 °F - 30.2 °F 100% 30.17 in 10.0 mi Calm Calm - N/A   Clear
7:15 AM 30.2 °F - 30.2 °F 100% 30.18 in 10.0 mi Calm Calm - N/A   Clear
7:35 AM 30.2 °F - 30.2 °F 100% 30.18 in 10.0 mi Calm Calm - N/A   Clear
7:55 AM 33.8 °F - 32.0 °F 93% 30.19 in 10.0 mi Calm Calm - N/A   Clear
8:15 AM 35.6 °F - 33.8 °F 93% 30.19 in 10.0 mi Calm Calm - N/A   Clear
8:35 AM 39.2 °F 37.0 °F 33.8 °F 81% 30.19 in 10.0 mi East 3.5 mph - N/A   Clear
8:55 AM 39.2 °F 37.0 °F 33.8 °F 81% 30.20 in 10.0 mi East 3.5 mph - N/A   Clear
9:15 AM 42.8 °F - 35.6 °F 76% 30.20 in 10.0 mi Calm Calm - N/A   Clear
9:35 AM 42.8 °F 41.1 °F 35.6 °F 76% 30.20 in 10.0 mi ESE 3.5 mph - N/A   Clear
9:55 AM 44.6 °F - 35.6 °F 71% 30.20 in 10.0 mi Calm Calm - N/A   Clear
10:15 AM 46.4 °F - 35.6 °F 66% 30.20 in 10.0 mi Calm Calm - N/A   Clear
10:35 AM 51.8 °F - 37.4 °F 58% 30.20 in 10.0 mi Calm Calm - N/A   Clear
10:55 AM 51.8 °F - 37.4 °F 58% 30.19 in 10.0 mi Calm Calm - N/A   Clear
11:15 AM 53.6 °F - 37.4 °F 54% 30.19 in 10.0 mi South 3.5 mph - N/A   Clear
11:35 AM 55.4 °F - 37.4 °F 51% 30.18 in 10.0 mi SSW 6.9 mph - N/A   Clear
11:55 AM 57.2 °F - 35.6 °F 44% 30.18 in 10.0 mi SW 5.8 mph - N/A   Clear
12:15 PM 57.2 °F - 33.8 °F 41% 30.17 in 10.0 mi SSW 5.8 mph - N/A   Clear
12:35 PM 57.2 °F - 35.6 °F 44% 30.16 in 10.0 mi South 5.8 mph - N/A   Clear
12:55 PM 60.8 °F - 35.6 °F 39% 30.16 in 10.0 mi Variable 6.9 mph - N/A   Clear
1:15 PM 60.8 °F - 32.0 °F 34% 30.15 in 10.0 mi SSW 5.8 mph - N/A   Clear
1:35 PM 60.8 °F - 30.2 °F 31% 30.15 in 10.0 mi Calm Calm - N/A   Clear
1:55 PM 60.8 °F - 30.2 °F 31% 30.15 in 10.0 mi Variable 4.6 mph - N/A   Clear
2:15 PM 60.8 °F - 32.0 °F 34% 30.15 in 10.0 mi NW 10.4 mph - N/A   Clear
2:35 PM 60.8 °F - 32.0 °F 34% 30.14 in 10.0 mi Variable 5.8 mph - N/A   Clear
2:55 PM 60.8 °F - 30.2 °F 31% 30.14 in 10.0 mi Variable 5.8 mph - N/A   Clear
3:15 PM 60.8 °F - 32.0 °F 34% 30.14 in 10.0 mi North 6.9 mph - N/A   Clear
3:35 PM 60.8 °F - 32.0 °F 34% 30.14 in 10.0 mi West 3.5 mph - N/A   Clear
3:55 PM 60.8 °F - 32.0 °F 34% 30.15 in 10.0 mi Variable 5.8 mph - N/A   Clear
4:15 PM 60.8 °F - 33.8 °F 36% 30.16 in 10.0 mi Variable 5.8 mph - N/A   Clear
4:35 PM 59.0 °F - 32.0 °F 36% 30.16 in 10.0 mi WNW 3.5 mph - N/A   Clear
4:55 PM 53.6 °F - 33.8 °F 47% 30.16 in 10.0 mi WSW 3.5 mph - N/A   Clear
5:15 PM 51.8 °F - 33.8 °F 50% 30.16 in 10.0 mi Calm Calm - N/A   Clear
5:35 PM 48.2 °F - 35.6 °F 62% 30.17 in 10.0 mi NNW 3.5 mph - N/A   Clear
5:55 PM 46.4 °F - 33.8 °F 62% 30.17 in 10.0 mi Calm Calm - N/A   Clear
6:15 PM 44.6 °F - 33.8 °F 66% 30.17 in 10.0 mi Calm Calm - N/A   Clear
6:35 PM 42.8 °F - 33.8 °F 70% 30.18 in 10.0 mi Calm Calm - N/A   Clear
6:55 PM 41.0 °F - 33.8 °F 76% 30.19 in 10.0 mi Calm Calm - N/A   Clear
7:15 PM 41.0 °F - 33.8 °F 76% 30.19 in 10.0 mi Calm Calm - N/A   Clear
7:35 PM 39.2 °F - 33.8 °F 81% 30.20 in 10.0 mi Calm Calm - N/A   Clear
7:55 PM 39.2 °F - 33.8 °F 81% 30.20 in 10.0 mi Calm Calm - N/A   Clear
8:15 PM 37.4 °F - 33.8 °F 87% 30.20 in 10.0 mi Calm Calm - N/A   Clear
8:35 PM 37.4 °F - 32.0 °F 81% 30.21 in 10.0 mi Calm Calm - N/A   Clear
8:55 PM 37.4 °F - 32.0 °F 81% 30.21 in 10.0 mi Calm Calm - N/A   Clear
9:15 PM 35.6 °F - 30.2 °F 81% 30.21 in 10.0 mi Calm Calm - N/A   Clear
9:35 PM 35.6 °F - 32.0 °F 87% 30.22 in 10.0 mi Calm Calm - N/A   Clear
9:55 PM 35.6 °F - 30.2 °F 81% 30.22 in 10.0 mi Calm Calm - N/A   Clear
10:15 PM 35.6 °F - 30.2 °F 81% 30.22 in 10.0 mi Calm Calm - N/A   Clear
10:35 PM 33.8 °F - 30.2 °F 87% 30.21 in 10.0 mi Calm Calm - N/A   Clear
10:55 PM 33.8 °F - 30.2 °F 87% 30.21 in 10.0 mi Calm Calm - N/A   Clear
11:15 PM 33.8 °F - 30.2 °F 87% 30.21 in 10.0 mi Calm Calm - N/A   Clear
11:35 PM 32.0 °F - 28.4 °F 87% 30.21 in 7.0 mi Calm Calm - N/A   Clear
11:55 PM 30.2 °F - 28.4 °F 93% 30.21 in 9.0 mi Calm Calm - N/A   Clear